TimeEST,TemperatureF,Dew PointF,Humidity,Sea Level PressureIn,VisibilityMPH,Wind Direction,Wind SpeedMPH,Gust SpeedMPH,PrecipitationIn,Events,Conditions,WindDirDegrees,DateUTC
12:14 AM,24.6,18.7,78,30.05,10.0,North,5.8,-,N/A,,Overcast,350,2013-03-02 05:14:00
12:34 AM,24.6,18.9,79,30.05,10.0,North,5.8,-,N/A,,Overcast,350,2013-03-02 05:34:00
12:55 AM,24.6,18.9,79,30.05,10.0,NNE,5.8,-,N/A,,Overcast,20,2013-03-02 05:55:00
1:14 AM,24.6,18.7,78,30.05,10.0,North,6.9,-,N/A,,Overcast,360,2013-03-02 06:14:00
1:34 AM,24.6,18.0,76,30.05,10.0,NE,10.4,-,N/A,,Overcast,40,2013-03-02 06:34:00
1:55 AM,24.6,17.6,75,30.05,10.0,North,6.9,-,N/A,,Overcast,10,2013-03-02 06:55:00
2:14 AM,23.7,16.2,73,30.05,10.0,North,8.1,-,N/A,,Overcast,360,2013-03-02 07:14:00
2:35 AM,23.5,16.3,74,30.05,10.0,North,5.8,-,N/A,,Overcast,10,2013-03-02 07:35:00
2:55 AM,23.4,17.1,77,30.05,10.0,North,4.6,-,N/A,Snow,Light Snow,10,2013-03-02 07:55:00
3:14 AM,23.4,17.4,78,30.04,10.0,North,3.5,-,N/A,Snow,Light Snow,10,2013-03-02 08:14:00
3:35 AM,23.4,17.6,79,30.04,10.0,North,4.6,-,N/A,,Overcast,350,2013-03-02 08:35:00
3:55 AM,23.4,17.6,79,30.04,10.0,North,4.6,-,N/A,Snow,Light Snow,360,2013-03-02 08:55:00
4:14 AM,23.4,17.8,79,30.03,10.0,NNW,3.5,-,N/A,,Overcast,340,2013-03-02 09:14:00
4:35 AM,23.5,17.2,77,30.03,10.0,NNW,5.8,-,N/A,Snow,Light Snow,330,2013-03-02 09:35:00
4:55 AM,24.1,17.4,76,30.03,10.0,North,5.8,-,N/A,,Overcast,350,2013-03-02 09:55:00
5:14 AM,24.1,17.8,77,30.03,10.0,NNW,4.6,-,N/A,Snow,Light Snow,330,2013-03-02 10:14:00
5:35 AM,24.1,17.4,76,30.03,10.0,NNW,6.9,-,N/A,,Overcast,340,2013-03-02 10:35:00
5:54 AM,23.5,17.1,76,30.03,10.0,North,6.9,-,N/A,Snow,Light Snow,350,2013-03-02 10:54:00
6:14 AM,23.4,17.4,78,30.03,10.0,NNW,6.9,-,N/A,Snow,Light Snow,340,2013-03-02 11:14:00
6:35 AM,23.2,17.4,79,30.04,10.0,North,8.1,-,N/A,Snow,Light Snow,350,2013-03-02 11:35:00
6:54 AM,22.6,17.2,80,30.04,7.0,NNW,9.2,-,N/A,Snow,Light Snow,340,2013-03-02 11:54:00
7:14 AM,22.5,17.1,80,30.04,10.0,NNW,6.9,-,N/A,Snow,Light Snow,330,2013-03-02 12:14:00
7:35 AM,22.5,17.2,80,30.05,5.0,NNW,8.1,-,N/A,Snow,Light Snow,330,2013-03-02 12:35:00
7:54 AM,22.1,17.4,82,30.05,4.0,NNW,6.9,-,N/A,Snow,Light Snow,330,2013-03-02 12:54:00
8:15 AM,21.9,17.4,83,30.05,5.0,NNW,8.1,-,N/A,Snow,Light Snow,330,2013-03-02 13:15:00
8:35 AM,21.9,17.6,83,30.06,5.0,NNW,9.2,-,N/A,Snow,Light Snow,330,2013-03-02 13:35:00
8:54 AM,22.3,17.6,82,30.05,7.0,NNW,9.2,-,N/A,Snow,Light Snow,330,2013-03-02 13:54:00
9:15 AM,21.9,17.1,82,30.05,7.0,NW,10.4,-,N/A,Snow,Light Snow,320,2013-03-02 14:15:00
9:35 AM,22.5,17.2,80,30.05,7.0,NW,9.2,-,N/A,Snow,Light Snow,320,2013-03-02 14:35:00
9:54 AM,22.5,17.2,80,30.05,10.0,NW,9.2,-,N/A,Snow,Light Snow,320,2013-03-02 14:54:00
10:15 AM,22.6,17.2,80,30.05,10.0,NW,10.4,-,N/A,Snow,Light Snow,320,2013-03-02 15:15:00
10:34 AM,22.8,17.4,80,30.05,5.0,NW,11.5,-,N/A,Snow,Light Snow,320,2013-03-02 15:34:00
10:55 AM,23.2,17.4,79,30.05,5.0,NNW,9.2,-,N/A,Snow,Light Snow,330,2013-03-02 15:55:00
11:14 AM,23.4,17.1,77,30.05,7.0,NW,11.5,-,N/A,Snow,Light Snow,320,2013-03-02 16:14:00
11:34 AM,23.5,16.9,76,30.05,10.0,NW,12.7,-,N/A,Snow,Light Snow,320,2013-03-02 16:34:00
11:54 AM,24.1,16.9,74,30.05,10.0,NW,10.4,-,N/A,Snow,Light Snow,320,2013-03-02 16:54:00
12:14 PM,24.1,16.5,73,30.04,10.0,NW,10.4,-,N/A,Snow,Light Snow,310,2013-03-02 17:14:00
12:35 PM,24.4,16.9,73,30.04,10.0,NW,12.7,-,N/A,Snow,Light Snow,320,2013-03-02 17:35:00
12:54 PM,24.6,16.9,72,30.04,10.0,NW,9.2,-,N/A,Snow,Light Snow,320,2013-03-02 17:54:00
1:15 PM,24.6,17.1,73,30.03,10.0,NW,10.4,-,N/A,,Overcast,320,2013-03-02 18:15:00
1:35 PM,25.2,17.2,72,30.03,10.0,North,6.9,-,N/A,,Overcast,350,2013-03-02 18:35:00
1:54 PM,25.5,17.4,71,30.02,10.0,NNW,6.9,-,N/A,,Overcast,330,2013-03-02 18:54:00
2:15 PM,25.2,17.2,72,30.02,10.0,North,5.8,-,N/A,,Overcast,350,2013-03-02 19:15:00
2:35 PM,25.2,16.7,70,30.02,10.0,North,5.8,-,N/A,,Overcast,350,2013-03-02 19:35:00
2:54 PM,25.3,16.5,69,30.02,10.0,North,8.1,-,N/A,,Overcast,350,2013-03-02 19:54:00
3:15 PM,25.5,16.3,68,30.02,10.0,North,9.2,-,N/A,,Overcast,10,2013-03-02 20:15:00
3:34 PM,25.5,16.3,68,30.02,10.0,North,4.6,-,N/A,,Overcast,10,2013-03-02 20:34:00
3:54 PM,25.2,16.9,71,30.02,10.0,North,8.1,-,N/A,,Overcast,350,2013-03-02 20:54:00
4:15 PM,25.2,16.5,70,30.02,10.0,North,8.1,-,N/A,,Overcast,10,2013-03-02 21:15:00
4:34 PM,25.2,16.5,70,30.02,10.0,North,8.1,-,N/A,,Overcast,360,2013-03-02 21:34:00
4:54 PM,24.8,16.5,71,30.03,10.0,North,5.8,-,N/A,,Overcast,360,2013-03-02 21:54:00
5:15 PM,24.4,16.3,71,30.03,10.0,NNW,8.1,-,N/A,,Overcast,330,2013-03-02 22:15:00
5:34 PM,24.4,16.3,71,30.03,10.0,North,8.1,-,N/A,Snow,Light Snow,10,2013-03-02 22:34:00
5:55 PM,24.3,16.3,72,30.03,10.0,North,8.1,-,N/A,,Overcast,350,2013-03-02 22:55:00
6:14 PM,24.1,16.2,72,30.04,10.0,NW,6.9,-,N/A,,Overcast,310,2013-03-02 23:14:00
6:34 PM,24.1,16.3,72,30.04,10.0,North,8.1,-,N/A,,Overcast,350,2013-03-02 23:34:00
6:55 PM,23.5,16.9,76,30.05,10.0,NW,6.9,-,N/A,,Overcast,320,2013-03-02 23:55:00
7:14 PM,23.5,16.5,75,30.05,10.0,North,5.8,-,N/A,Snow,Light Snow,350,2013-03-03 00:14:00
7:35 PM,23.4,16.3,75,30.05,10.0,NNW,9.2,-,N/A,,Overcast,330,2013-03-03 00:35:00
7:55 PM,23.2,16.2,75,30.05,10.0,NW,11.5,-,N/A,,Overcast,320,2013-03-03 00:55:00
8:14 PM,22.8,16.0,75,30.04,10.0,North,5.8,-,N/A,,Overcast,350,2013-03-03 01:14:00
8:35 PM,22.5,15.8,76,30.04,10.0,North,4.6,-,N/A,,Overcast,350,2013-03-03 01:35:00
8:55 PM,22.5,15.8,76,30.04,10.0,NNW,4.6,-,N/A,,Overcast,340,2013-03-03 01:55:00
9:14 PM,22.5,15.4,74,30.04,10.0,NNW,6.9,-,N/A,,Overcast,330,2013-03-03 02:14:00
9:35 PM,21.7,14.7,74,30.04,10.0,NW,5.8,-,N/A,,Overcast,320,2013-03-03 02:35:00
9:54 PM,20.1,14.0,77,30.05,10.0,NW,6.9,-,N/A,,Scattered Clouds,310,2013-03-03 02:54:00
10:14 PM,19.0,13.3,78,30.05,10.0,NW,5.8,-,N/A,,Mostly Cloudy,310,2013-03-03 03:14:00
10:34 PM,18.0,12.9,81,30.04,10.0,NW,4.6,-,N/A,,Mostly Cloudy,320,2013-03-03 03:34:00
10:54 PM,17.2,12.6,82,30.04,10.0,Calm,Calm,-,N/A,,Mostly Cloudy,0,2013-03-03 03:54:00
11:14 PM,16.2,11.8,83,30.04,10.0,NW,3.5,-,N/A,,Overcast,310,2013-03-03 04:14:00
11:34 PM,15.4,11.8,86,30.03,10.0,Calm,Calm,-,N/A,,Overcast,0,2013-03-03 04:34:00
11:55 PM,16.3,12.9,86,30.03,10.0,WNW,3.5,-,N/A,,Overcast,300,2013-03-03 04:55:00